Weather History for Chino, CA

Change the Weather History Date:

Monday, December 23, 2013

  Actual Average Record
Temperature  
Mean Temperature 56 °F -  
Max Temperature 75 °F 65 °F 78 °F (2005)
Min Temperature 37 °F 36 °F 26 °F (1998)
Degree Days  
Heating Degree Days 9    
Growing Degree Days 6 (Base 50)    
Moisture  
Dew Point 39 °F    
Average Humidity 62    
Maximum Humidity 96    
Minimum Humidity 22    
Precipitation  
Precipitation 0.00 in - - ()
Sea Level Pressure  
Sea Level Pressure 30.27 in    
Wind  
Wind Speed 1 mph (NNE)    
Max Wind Speed 6 mph    
Max Gust Speed -    
Visibility 9 miles    
Events      
Averages and records for this station are not official NWS values.
T = Trace of Precipitation, MM = Missing Value Source: NWS Daily Summary

Daily Weather History Graph

Daily Weather History Graph

Search for Another Location

Airport:

Trip Planner

Search our weather history database for the weather conditions in past years. The results will help you decide how hot, cold, wet, or windy it might be!

Date:

Astronomy

Dec. 23, 2013 Rise Set
Actual Time 6:53 AM PST 4:46 PM PST
Civil Twilight 6:25 AM PST 5:14 PM PST
Nautical Twilight 5:54 AM PST 5:45 PM PST
Astronomical Twilight 5:23 AM PST 6:16 PM PST
Moon 10:44 PM PST (12/23) 10:35 AM PST (12/23)
Length of Visible Light 10h 49m
Length of Day
9h 53m
Waning Gibbous, 67% of the Moon is Illuminated
Dec 23
Waning Gibbous
Dec 25
Last Quarter
Jan 1
New
Jan 7
First Quarter
Jan 15
Full

Hourly Weather History & Observations

Time (PST) Temp. Windchill Dew Point Humidity Pressure Visibility Wind Dir Wind Speed Gust Speed Precip Events Conditions
12:53 AM 42.1 °F 38.4 °F 41.0 °F 96% 30.28 in 4.0 mi North 5.8 mph - N/A   Clear
1:53 AM 43.0 °F - 41.0 °F 93% 30.28 in 4.0 mi Calm Calm - N/A   Clear
2:53 AM 41.0 °F - 39.9 °F 96% 30.29 in 5.0 mi Calm Calm - N/A   Clear
3:53 AM 39.9 °F - 37.9 °F 93% 30.28 in 6.0 mi Calm Calm - N/A   Clear
4:53 AM 37.0 °F - 36.0 °F 96% 30.28 in 6.0 mi Calm Calm - N/A   Clear
5:53 AM 39.0 °F - 37.0 °F 93% 30.30 in 6.0 mi Calm Calm - N/A   Clear
6:53 AM 39.0 °F - 37.0 °F 93% 30.32 in 10.0 mi Calm Calm - N/A   Clear
7:53 AM 44.1 °F - 39.9 °F 85% 30.32 in 10.0 mi Calm Calm - N/A   Clear
8:53 AM 55.0 °F - 43.0 °F 64% 30.33 in 10.0 mi Calm Calm - N/A   Clear
9:53 AM 61.0 °F - 43.0 °F 52% 30.33 in 10.0 mi Calm Calm - N/A   Clear
10:53 AM 69.1 °F - 41.0 °F 36% 30.32 in 10.0 mi NNE 3.5 mph - N/A   Clear
11:53 AM 73.9 °F - 37.9 °F 27% 30.28 in 10.0 mi Calm Calm - N/A   Clear
12:53 PM 75.0 °F - 34.0 °F 22% 30.25 in 10.0 mi Calm Calm - N/A   Clear
1:53 PM 75.0 °F - 36.0 °F 24% 30.24 in 10.0 mi Calm Calm - N/A   Clear
2:53 PM 75.0 °F - 35.1 °F 23% 30.23 in 10.0 mi Calm Calm - N/A   Clear
3:53 PM 73.0 °F - 43.0 °F 34% 30.22 in 10.0 mi Calm Calm - N/A   Clear
4:53 PM 66.9 °F - 37.9 °F 34% 30.23 in 10.0 mi Calm Calm - N/A   Clear
5:53 PM 62.1 °F - 37.0 °F 39% 30.23 in 10.0 mi Calm Calm - N/A   Clear
6:53 PM 55.9 °F - 39.9 °F 55% 30.24 in 10.0 mi Calm Calm - N/A   Clear
7:53 PM 55.0 °F - 39.0 °F 55% 30.24 in 10.0 mi Calm Calm - N/A   Clear
8:53 PM 53.1 °F - 39.0 °F 59% 30.23 in 9.0 mi ENE 3.5 mph - N/A   Clear
9:53 PM 50.0 °F - 39.0 °F 66% 30.23 in 9.0 mi Calm Calm - N/A   Clear
10:53 PM 51.1 °F - 39.9 °F 66% 30.22 in 9.0 mi NE 5.8 mph - N/A   Clear
11:53 PM 45.0 °F - 39.0 °F 80% 30.21 in 9.0 mi Calm Calm - N/A   Clear